Regional Weather Roundup
Issued by NWS

Home | Current Version | Previous Version | Text Only | Print | Product List | Glossary On
Versions: 1 2 3 4 5 6 7 8 9 10 11 12 13 14 15 16 17 18 19 20 21 22 23 24 25 26 27 28 29 30 31 32 33 34 35 36 37 38 39 40 41 42 43 44 45 46 47 48 49 50
000
ASUS43 KFSD 011202
RWRSD

WEATHER ROUNDUP FOR SOUTH DAKOTA
NATIONAL WEATHER SERVICE SIOUX FALLS SD
700 AM CDT SAT OCT 01 2016

NOTE: "FAIR" INDICATES FEW OR NO CLOUDS BELOW 12,000 FEET WITH NO
SIGNIFICANT WEATHER AND/OR OBSTRUCTIONS TO VISIBILITY.


SDZ001>005-009-010-012>017-011300-
NORTHWEST AND NORTH CENTRAL SOUTH DAKOTA

CITY           SKY/WX    TMP DP  RH WIND       PRES   REMARKS
BUFFALO          N/A     54  47  77 S5        29.93S
FAITH            N/A     52  46  80 SE10      29.99S
MOBRIDGE       PTCLDY    61  46  57 SE16      29.99F
$$

SDZ012>016-024>037-041>051-057-063-072>074-011300-
SOUTHWEST AND SOUTH CENTRAL SOUTH DAKOTA

CITY           SKY/WX    TMP DP  RH WIND       PRES   REMARKS
RAPID CTY ARPT CLEAR     45  43  93 CALM      30.00F
PIERRE         CLOUDY    59  45  59 SE12      30.01S
CUSTER         CLEAR     47  41  80 NW3       30.12S
ELLSWORTH AFB  CLEAR     50  47  88 NW6       30.00S
PHILIP         PTCLDY    57  48  72 E6        29.99S
PINE RIDGE     CLEAR     53  47  79 SW7       30.03F
WINNER         FAIR      58  45  62 S14       30.06F
$$

SDZ004>011-016>023-039-040-011300-
NORTHEAST SOUTH DAKOTA

CITY           SKY/WX    TMP DP  RH WIND       PRES   REMARKS
ABERDEEN       CLOUDY    50  47  89 SE8       30.10F
WATERTOWN      CLEAR     50  47  89 S5        30.15F
SISSETON         N/A     45  43  93 S6        30.16S
$$

SDZ017-020-022-023-036>040-048>070-011300-
SOUTHEAST SOUTH DAKOTA

CITY           SKY/WX    TMP DP  RH WIND       PRES   REMARKS
SIOUX FALLS    CLOUDY    52  49  89 CALM      30.16S
HURON          MOCLDY    48  46  93 SE7       30.12S
CHAMBERLAIN    CLOUDY    54  48  80 SE7       30.09S
MITCHELL       PTCLDY    45  43  93 SE7       30.13S
YANKTON        CLEAR     48  46  93 E3        30.14R
$$

ABBREVIATIONS USED IN REMARKS
   TC - TEMPERATURE IN CELSIUS
  WCI - WIND CHILL INDEX
   HX - HEAT INDEX
  VSB - VISIBILITY




USA.gov is the U.S. government's official web portal to all federal, state and local government web resources and services.